Stations météo

réclame
Mon MeteoGroup
Grünow, Allemagne (10289): Température de l'air & dewpoint: 11.02.2019 15:00:00 - 17.02.2019 15:00:00 (CET)Grünow, Allemagne (10289): Température de l'air 5cm & Température de l'air -5cm: 11.02.2019 15:00:00 - 17.02.2019 15:00:00 (CET)Grünow, Allemagne (10289): Température de l'air -20cm & Température de l'air -100cm: 11.02.2019 15:00:00 - 17.02.2019 15:00:00 (CET)Grünow, Allemagne (10289): Vitesse du vent & gusts: 11.02.2019 15:00:00 - 17.02.2019 15:00:00 (CET)Grünow, Allemagne (10289): Direction du vent: 11.02.2019 15:00:00 - 17.02.2019 15:00:00 (CET)Grünow, Allemagne (10289): reduced air pressure: 11.02.2019 15:00:00 - 17.02.2019 15:00:00 (CET)Grünow, Allemagne (10289): visibility: 11.02.2019 15:00:00 - 17.02.2019 15:00:00 (CET)Grünow, Allemagne (10289): Ensoleillement: 11.02.2019 15:00:00 - 17.02.2019 15:00:00 (CET)Grünow, Allemagne (10289): Quantités de précipitations: 11.02.2019 15:00:00 - 17.02.2019 15:00:00 (CET)
Date & Time tt [°C] td [°C] tt 5cm [°C] tt -5cm [°C] tt -20cm [°C] tt -100cm [°C] ff [km/h] ff [knt] fx [km/h] fx [knt] dd ppp [hPa] vv [km] sd [min] rr [mm]
17.02.2019 15:00:00 11,4 6,0 12,6 9,1 3,7 4,5 7 4 11 6 SSW 1024,0 23 60 0,0
17.02.2019 14:00:00 11,7 5,8 13,0 8,2 3,3 4,5 4 2 17 9 SW 1024,3 27 55 0,0
17.02.2019 13:00:00 10,1 6,2 11,2 6,1 3,0 4,5 9 5 14 7 SW 1024,8 18 0 0,0
17.02.2019 12:00:00 7,9 4,6 8,5 4,9 2,8 4,5 9 5 14 8 SSW 1025,2 16 0 0,0
17.02.2019 11:00:00 7,0 3,9 7,3 3,9 2,7 4,5 10 6 17 9 S 1025,4 16 0 0,0
17.02.2019 10:00:00 5,0 2,3 5,2 2,9 2,6 4,5 9 5 14 8 S 1025,4 18 0 0,0
17.02.2019 09:00:00 3,7 1,2 3,8 2,2 2,6 4,5 10 6 16 9 S 1025,2 19 0 0,0
17.02.2019 08:00:00 3,0 0,6 2,9 1,5 2,6 4,5 11 6 17 9 S 1025,1 17 0 0,0
17.02.2019 07:00:00 1,7 -0,1 1,1 1,2 2,7 4,5 11 6 13 7 S 1024,8 18 0 0,0
17.02.2019 06:00:00 2,2 -0,1 1,1 1,2 2,8 4,5 9 5 10 6 S 1024,7 19 0 0,0
17.02.2019 05:00:00 2,9 -0,1 1,8 1,2 2,9 4,5 6 3 8 4 SSW 1024,7 24 0 0,0
17.02.2019 04:00:00 3,2 -0,2 1,4 1,3 3,0 4,5 5 3 9 5 S 1024,4 29 0 0,0
17.02.2019 03:00:00 2,7 -0,5 0,3 1,3 3,1 4,5 8 4 10 5 SW 1024,4 30 0 0,0
17.02.2019 02:00:00 2,8 -0,5 -0,1 1,3 3,3 4,5 7 4 13 7 SW 1024,3 28 0 0,0
17.02.2019 01:00:00 3,8 -0,1 0,4 1,7 3,4 4,5 12 6 16 9 WSW 1024,2 34 0 0,0
17.02.2019 00:00:00 5,1 0,1 1,5 2,0 3,6 4,5 14 8 18 10 SW 1024,1 35 0 0,0
16.02.2019 23:00:00 4,3 -0,2 2,3 2,3 3,7 4,5 13 7 16 8 SW 1024,1 37 0 0,0
16.02.2019 22:00:00 6,5 0,4 2,9 2,7 3,9 4,5 10 5 14 8 SW 1024,1 41 0 0,0
16.02.2019 21:00:00 6,3 0,8 3,1 3,1 4,0 4,5 12 7 18 10 SW 1023,8 40 0 0,0
16.02.2019 20:00:00 6,4 0,7 3,3 3,6 4,1 4,5 12 6 19 10 SSW 1023,9 42 0 0,0
16.02.2019 19:00:00 6,4 1,0 3,4 4,4 4,2 4,5 13 7 17 9 SSW 1023,7 42 0 0,0
16.02.2019 18:00:00 7,8 1,5 4,9 5,4 4,2 4,5 14 8 19 10 SW 1023,4 27 2 0,0
16.02.2019 17:00:00 9,7 2,3 7,0 6,9 4,1 4,5 14 8 27 15 SW 1023,2 57 60 0,0
16.02.2019 16:00:00 12,4 1,6 11,8 8,1 3,8 4,5 18 10 25 13 SW 1023,2 50 60 0,0
16.02.2019 15:00:00 12,7 1,9 13,0 8,4 3,4 4,5 19 10 26 14 SW 1023,7 42 60 0,0
16.02.2019 14:00:00 12,6 0,7 13,1 8,0 3,0 4,5 19 10 27 15 SW 1024,1 52 60 0,0
16.02.2019 13:00:00 12,0 1,2 13,1 6,8 2,6 4,5 13 7 20 11 SW 1024,8 62 60 0,0
16.02.2019 12:00:00 10,3 1,5 11,5 4,5 2,3 4,5 13 7 24 13 SSW 1025,0 75 60 0,0
16.02.2019 11:00:00 8,0 1,4 8,2 1,3 2,4 4,5 18 10 23 12 SSW 1025,3 42 60 0,0
16.02.2019 10:00:00 5,6 0,4 3,9 1,0 2,4 4,5 15 8 22 12 SSW 1025,5 37 60 0,0
16.02.2019 09:00:00 4,0 -0,5 2,3 1,0 2,5 4,5 15 8 22 12 SSW 1026,0 43 60 0,0
16.02.2019 08:00:00 2,4 -1,0 0,5 1,0 2,5 4,4 16 8 22 12 S 1026,0 42 21 0,0
16.02.2019 07:00:00 1,8 -1,3 -0,7 1,0 2,6 4,4 11 6 18 10 S 1026,3 36 0 0,0
16.02.2019 06:00:00 2,3 -1,3 0,3 1,0 2,6 4,4 11 6 16 9 S 1026,6 39 0 0,0
16.02.2019 05:00:00 2,5 -1,0 0,0 1,0 2,7 4,4 14 7 21 11 S 1027,2 42 0 0,0
16.02.2019 04:00:00 2,8 -0,9 0,9 1,0 2,8 4,4 14 8 19 10 S 1027,6 38 0 0,0
16.02.2019 03:00:00 2,1 -1,3 0,5 0,8 3,0 4,4 15 8 19 10 SSE 1028,1 32 0 0,0
16.02.2019 02:00:00 3,4 -1,1 0,9 1,0 3,1 4,4 16 8 19 11 S 1028,9 36 0 0,0
16.02.2019 01:00:00 3,7 -1,6 1,4 1,1 3,3 4,4 12 7 16 9 S 1029,4 37 0 0,0
16.02.2019 00:00:00 3,6 -2,2 0,9 1,3 3,5 4,4 12 7 16 9 S 1029,8 46 0 0,0
15.02.2019 23:00:00 3,4 -2,1 0,9 1,6 3,6 4,4 14 7 19 10 S 1030,0 42 0 0,0
15.02.2019 22:00:00 3,9 -1,8 0,9 2,0 3,8 4,4 12 6 14 8 S 1030,5 49 0 0,0
15.02.2019 21:00:00 4,2 -1,1 1,1 2,6 4,0 4,4 11 6 15 8 S 1030,8 47 0 0,0
15.02.2019 20:00:00 4,6 -1,2 1,5 3,2 4,2 4,4 11 6 13 7 S 1031,2 48 0 0,0
15.02.2019 19:00:00 4,8 -0,6 2,1 4,1 4,3 4,4 10 6 13 7 S 1031,6 41 0 0,0
15.02.2019 18:00:00 5,6 0,5 2,2 5,3 4,3 4,4 10 5 14 8 SSW 1031,7 45 17 0,0
15.02.2019 17:00:00 8,6 2,4 7,1 7,0 4,1 4,4 10 5 13 7 SW 1031,7 41 60 0,0
15.02.2019 16:00:00 10,7 3,7 10,7 8,1 3,8 4,4 9 5 13 7 S 1032,0 35 60 0,0
15.02.2019 15:00:00 11,5 1,7 12,2 8,3 3,4 4,4 6 4 14 7 SSW 1032,5 29 60 0,0
15.02.2019 14:00:00 10,8 2,3 12,1 7,6 3,0 4,4 9 5 15 8 WSW 1032,9 25 60 0,0
15.02.2019 13:00:00 8,4 2,2 10,5 5,8 2,7 4,4 6 4 12 7 W 1033,5 17 60 0,0
15.02.2019 12:00:00 6,2 1,7 7,6 2,9 2,6 4,4 8 5 11 6 SW 1034,0 15 60 0,0
15.02.2019 11:00:00 3,9 0,4 4,2 1,0 2,7 4,4 5 3 9 5 SW 1034,2 13 60 0,0
15.02.2019 10:00:00 2,4 0,1 0,9 1,0 2,7 4,3 6 3 9 5 SSW 1034,3 11 60 0,0
15.02.2019 09:00:00 0,2 -1,0 -1,0 1,0 2,8 4,3 8 4 11 6 SSW 1034,1 9 60 0,0
15.02.2019 08:00:00 -1,0 -2,2 -2,6 1,1 2,9 4,3 6 4 11 6 SSW 1033,8 7 7 0,0
15.02.2019 07:00:00 -0,5 -1,8 -1,8 1,1 3,0 4,3 8 5 13 7 SSW 1033,6 11 0 0,0
15.02.2019 06:00:00 -0,1 -1,5 -1,6 1,2 3,1 4,3 9 5 11 6 SW 1033,4 12 0 0,0
15.02.2019 05:00:00 0,3 -1,3 -1,2 1,3 3,2 4,3 8 4 14 8 SW 1033,6 13 0 0,0
15.02.2019 04:00:00 0,8 -0,9 -1,1 1,3 3,4 4,3 13 7 17 9 SW 1033,5 16 0 0,0
15.02.2019 03:00:00 1,2 -0,4 -0,5 1,3 3,6 4,3 14 7 16 9 SW 1033,4 14 0 0,0
15.02.2019 02:00:00 1,6 -0,1 -0,3 1,4 3,8 4,3 11 6 15 8 SW 1033,8 14 0 0,0
15.02.2019 01:00:00 1,8 0,1 -0,1 1,7 3,9 4,2 11 6 14 8 SW 1033,8 13 0 0,0
15.02.2019 00:00:00 2,7 0,9 0,5 2,1 4,1 4,2 11 6 16 8 SW 1033,8 15 0 0,0
14.02.2019 23:00:00 3,2 1,5 0,7 2,4 4,4 4,2 11 6 17 9 SW 1033,5 12 0 0,0
14.02.2019 22:00:00 2,9 1,7 1,0 2,8 4,6 4,2 13 7 16 8 SW 1033,3 9 0 0,0
14.02.2019 21:00:00 3,0 1,9 0,9 3,3 4,8 4,2 11 6 15 8 SSW 1033,7 8 0 0,0
14.02.2019 20:00:00 3,7 2,2 1,9 4,0 5,0 4,2 12 6 15 8 SSW 1033,7 9 0 0,0
14.02.2019 19:00:00 4,3 2,6 2,1 4,8 5,2 4,2 9 5 12 7 S 1034,1 9 0 0,0
14.02.2019 18:00:00 5,3 3,2 2,7 5,9 5,3 4,2 9 5 15 8 SSW 1034,0 12 0 0,0
14.02.2019 17:00:00 7,5 4,0 5,5 7,3 5,3 4,2 8 5 21 11 SW 1033,7 17 50 0,0
14.02.2019 16:00:00 8,9 4,5 8,7 8,6 5,1 4,2 14 8 24 13 WSW 1033,7 20 60 0,0
14.02.2019 15:00:00 9,1 4,3 10,2 9,2 4,9 4,1 18 10 24 13 WSW 1033,9 22 60 0,0
14.02.2019 14:00:00 9,7 4,3 11,7 8,9 4,6 4,1 16 9 25 13 WSW 1034,2 27 39 0,0
14.02.2019 13:00:00 8,8 4,0 10,3 8,0 4,4 4,1 10 5 19 10 WSW 1034,8 22 0 0,0
14.02.2019 12:00:00 7,9 4,3 9,1 7,0 4,3 4,1 15 8 23 12 W 1034,6 16 0 0,0
14.02.2019 11:00:00 7,1 4,7 7,8 6,1 4,2 4,1 19 11 26 14 W 1034,5 11 0 0,0
14.02.2019 10:00:00 6,5 4,7 6,8 5,3 4,1 4,1 10 5 18 10 WSW 1034,7 10 0 0,0
14.02.2019 09:00:00 6,1 4,9 5,9 5,0 4,1 4,1 15 8 19 11 SW 1034,5 6 0 0,0
14.02.2019 08:00:00 6,3 5,0 5,7 5,1 4,1 4,1 6 3 16 9 WSW 1034,9 6 0 0,0
14.02.2019 07:00:00 6,5 5,2 6,0 5,2 4,1 4,1 12 6 22 12 WSW 1033,9 5 0 0,0
14.02.2019 06:00:00 6,7 5,2 6,2 5,3 4,1 4,1 18 10 26 14 W 1033,3 4,9 0 0,0
14.02.2019 05:00:00 6,9 5,7 6,4 5,4 4,1 4,1 16 9 25 13 W 1033,4 4,1 0 0,0
14.02.2019 04:00:00 7,0 6,1 6,5 5,4 4,0 4,1 13 7 24 13 W 1033,2 3,0 0 0,0
14.02.2019 03:00:00 7,0 6,3 6,6 5,5 4,0 4,1 15 8 26 14 W 1033,0 2,8 0 0,1
14.02.2019 02:00:00 6,9 6,6 6,6 5,5 4,0 4,1 16 9 27 14 W 1032,7 1,5 0 0,0
14.02.2019 01:00:00 6,9 6,5 6,6 5,4 3,9 4,1 18 10 26 14 W 1032,6 2,2 0 0,0
14.02.2019 00:00:00 7,0 6,4 6,6 5,4 3,9 4,1 19 10 31 17 W 1032,2 3,1 0 0,0
13.02.2019 23:00:00 7,4 6,3 7,0 5,4 3,8 4,1 18 10 29 15 W 1031,8 8 0 0,0
13.02.2019 22:00:00 7,5 6,1 7,1 5,3 3,7 4,1 19 10 32 17 W 1032,0 12 0 0,0
13.02.2019 21:00:00 7,5 6,2 7,1 5,2 3,7 4,1 21 11 36 19 W 1031,4 8 0 0,0
13.02.2019 20:00:00 7,7 6,1 7,2 4,9 3,7 4,1 26 14 37 20 WNW 1031,0 13 0 0,0
13.02.2019 19:00:00 7,2 5,4 6,1 4,8 3,7 4,1 27 14 36 19 W 1030,6 14 0 0,0
13.02.2019 18:00:00 7,4 5,4 6,4 5,1 3,6 4,1 24 13 34 18 W 1030,5 13 0 0,0
13.02.2019 17:00:00 8,0 5,5 7,1 5,7 3,5 4,1 22 12 40 22 W 1030,2 18 0 0,0
13.02.2019 16:00:00 8,3 5,8 7,6 6,0 3,4 4,1 29 15 43 23 W 1029,9 17 0 0,0
13.02.2019 15:00:00 8,4 6,1 8,4 5,9 3,2 4,1 31 17 42 23 W 1029,6 17 0 0,0
13.02.2019 14:00:00 8,0 5,9 7,9 5,6 3,0 4,1 22 12 34 18 W 1029,6 14 0 0,0
13.02.2019 13:00:00 7,9 5,9 7,7 5,3 2,8 4,1 25 14 39 21 W 1029,0 13 0 0,0
13.02.2019 12:00:00 7,5 5,7 7,2 4,9 2,6 4,1 29 16 46 25 W 1028,7 11 0 0,0
13.02.2019 11:00:00 6,8 5,5 6,6 4,4 2,5 4,1 33 18 45 24 W 1027,9 8 0 0,0
13.02.2019 10:00:00 6,0 5,1 5,9 3,7 2,3 4,1 31 17 42 23 W 1027,4 6 0 0,0
13.02.2019 09:00:00 5,3 4,6 5,0 3,3 2,2 4,1 24 13 39 21 W 1027,7 2,6 0 0,0
13.02.2019 08:00:00 5,1 4,0 4,6 2,9 2,1 4,1 29 15 39 21 W 1027,3 4,1 0 0,0
13.02.2019 07:00:00 4,8 3,6 4,4 2,5 2,0 4,1 23 13 - - WSW 1027,1 6 0 0,1
13.02.2019 06:00:00 4,6 3,1 4,1 2,1 2,0 4,1 22 12 32 17 WSW 1027,1 7 0 0,0
13.02.2019 05:00:00 3,7 2,5 3,2 1,6 1,9 4,1 19 10 28 15 WSW 1027,7 7 0 0,0
13.02.2019 04:00:00 3,0 1,9 2,5 1,1 2,0 4,1 18 10 33 18 SW 1027,5 9 0 0,0
13.02.2019 03:00:00 2,6 1,5 1,7 0,8 2,0 4,1 21 11 30 16 SW 1028,3 13 0 0,0
13.02.2019 02:00:00 1,6 0,6 1,0 0,8 2,0 4,1 15 8 20 11 SSW 1029,1 25 0 0,1
13.02.2019 01:00:00 0,9 -0,2 0,4 0,9 2,1 4,1 14 8 22 12 SSW 1029,6 18 0 0,6
13.02.2019 00:00:00 1,4 -0,9 0,5 0,9 2,2 4,1 11 6 24 13 SW 1030,2 14 0 0,0
12.02.2019 23:00:00 1,6 -2,7 0,6 0,9 2,2 4,1 11 6 21 11 WSW 1030,0 54 0 0,0
12.02.2019 22:00:00 0,6 -2,7 -0,3 1,0 2,3 4,1 10 5 13 7 SW 1030,0 55 0 0,0
12.02.2019 21:00:00 -0,1 -3,2 -1,3 1,1 2,4 4,1 8 4 14 8 SW 1029,9 56 0 0,0
12.02.2019 20:00:00 0,5 -3,5 -1,8 1,2 2,6 4,1 8 4 14 8 WSW 1029,8 56 0 0,0
12.02.2019 19:00:00 1,0 -3,3 -1,1 1,4 2,7 4,1 12 6 18 10 W 1029,7 58 0 0,0
12.02.2019 18:00:00 1,1 -3,1 -1,3 1,8 2,8 4,1 14 8 19 11 WNW 1029,2 65 0 0,0
12.02.2019 17:00:00 2,7 -2,5 1,0 3,2 2,8 4,1 13 7 32 17 WNW 1028,6 66 53 0,0
12.02.2019 16:00:00 4,2 -2,4 4,7 4,3 2,6 4,1 23 12 32 17 WNW 1028,3 57 58 0,0
12.02.2019 15:00:00 4,4 -2,8 6,0 4,6 2,5 4,1 23 13 33 18 NW 1027,6 51 49 0,0
12.02.2019 14:00:00 4,5 -1,8 6,5 4,2 2,2 4,1 27 14 42 23 WNW 1027,3 57 46 0,0
12.02.2019 13:00:00 3,8 -2,1 5,6 3,6 2,1 4,1 25 13 37 20 NW 1026,6 56 52 0,0
12.02.2019 12:00:00 3,6 -1,3 5,6 2,2 2,0 4,1 24 13 37 20 NW 1026,2 55 60 0,0
12.02.2019 11:00:00 2,7 -1,7 3,5 0,8 2,0 4,1 29 16 39 21 NW 1025,5 39 60 0,0
12.02.2019 10:00:00 2,2 -1,5 1,7 0,8 2,1 4,1 25 13 36 20 NW 1024,8 36 59 0,0
12.02.2019 09:00:00 1,6 -1,4 0,9 0,8 2,1 4,1 17 9 25 14 WNW 1024,0 35 58 0,0
12.02.2019 08:00:00 0,9 -1,6 -0,2 0,8 2,2 4,1 16 9 29 16 WNW 1023,1 35 3 0,0
12.02.2019 07:00:00 1,0 -1,5 -0,1 0,9 2,2 4,1 18 10 29 16 WNW 1022,0 38 0 0,0
12.02.2019 06:00:00 1,5 -1,2 0,9 0,9 2,3 4,1 21 11 33 18 NW 1021,6 36 0 0,0
12.02.2019 05:00:00 1,7 -1,2 1,2 0,9 2,3 4,1 22 12 39 21 NW 1020,7 39 0 0,0
12.02.2019 04:00:00 1,9 -1,4 1,2 0,9 2,4 4,1 25 14 39 21 NW 1019,8 40 0 0,0
12.02.2019 03:00:00 1,6 -1,5 0,3 1,0 2,4 4,1 28 15 44 24 WNW 1019,3 33 0 0,0
12.02.2019 02:00:00 1,9 -1,9 1,1 1,0 2,5 4,0 29 15 46 25 WNW 1018,8 37 0 0,0
12.02.2019 01:00:00 1,7 -2,1 0,4 1,0 2,6 4,0 31 17 45 25 WNW 1018,4 39 0 0,0
12.02.2019 00:00:00 1,6 -2,3 0,4 1,1 2,7 4,0 28 15 41 22 WNW 1017,6 43 0 0,0
11.02.2019 23:00:00 2,1 -1,8 0,8 1,1 2,8 4,0 27 15 41 22 WNW 1016,9 38 0 0,0
11.02.2019 22:00:00 1,8 -2,0 0,4 1,0 3,0 4,0 22 12 31 17 WNW 1016,5 53 0 0,0
11.02.2019 21:00:00 2,2 -2,4 0,5 1,1 3,2 4,0 23 12 41 22 WNW 1015,9 61 0 0,0
11.02.2019 20:00:00 2,3 -2,7 0,8 1,5 3,3 4,0 28 15 46 25 NW 1014,9 66 0 0,0
11.02.2019 19:00:00 2,9 -2,1 1,4 2,1 3,5 4,0 27 14 45 25 NW 1013,4 51 0 0,0
11.02.2019 18:00:00 3,3 -1,6 1,9 2,9 3,6 4,0 33 18 57 31 NW 1011,9 51 0 0,0
11.02.2019 17:00:00 4,0 -1,2 3,5 3,3 3,6 4,0 35 19 64 34 NW 1010,1 56 0 0,0
11.02.2019 16:00:00 4,0 -1,2 3,6 3,7 3,7 4,0 38 21 64 34 WNW 1008,7 52 0 0,0
11.02.2019 15:00:00 4,0 -0,8 3,7 4,1 3,7 3,9 42 23 61 33 NW 1007,3 55 0 0,0

tt = Température de l'air
td = dewpoint
tt 5cm = Température de l'air 5cm
tt -5cm = Température de l'air -5cm
tt -20cm = Température de l'air -20cm
tt -100cm = Température de l'air -100cm
ff = Vitesse du vent
fx = gusts
dd = Direction du vent
ppp = reduced air pressure
vv = visibility
sd = Ensoleillement
rr = Quantités de précipitations

stations d'obs. à proximité